Location: Cruquius
(52.3348°N, 4.6319°E)
Time: 16:38:49
(UTC+00:00)

Cosmos 2242 Rocket - Visible Passes

Search period start: 25 September 2021 00:00
Search period end: 05 October 2021 00:00
Orbit: 619 x 650 km, 82.5° (Epoch: 25 September)

Date Brightness Start Highest point End Pass type
(mag) Time Alt. Az. Time Alt. Az. Time Alt. Az.
26 Sep 7.4 04:10:30 10° E 04:11:45 11° ENE 04:13:01 10° ENE visible
27 Sep 6.8 04:30:23 10° SE 04:33:41 20° E 04:37:00 10° NE visible
28 Sep 5.6 04:51:37 10° SSE 04:55:45 35° E 04:59:55 10° NNE visible
30 Sep 6.8 03:59:39 10° ESE 04:02:36 17° E 04:05:33 10° NE visible
01 Oct 5.8 04:20:39 10° SSE 04:24:37 30° E 04:28:37 10° NNE visible
02 Oct 4.5 04:42:19 10° S 04:46:47 55° E 04:51:16 10° NNE visible
03 Oct 6.8 03:29:03 10° ESE 03:31:31 15° E 03:34:00 10° NE visible
03 Oct 3.7 05:04:29 10° SSW 05:09:04 82° W 05:13:41 10° N visible
04 Oct 6.0 03:49:45 10° SE 03:53:30 26° E 03:57:17 10° NNE visible
